Regional Weather Roundup
Issued by NWS Northern Indiana

Home | Current Version | Previous Version | Text Only | Print | Product List | Glossary Off
Versions: 1 2 3 4 5 6 7 8 9 10 11 12 13 14 15 16 17 18 19 20 21 22 23 24 25 26 27 28 29 30 31 32 33 34 35 36 37 38 39 40 41 42 43 44 45 46 47 48 49 50

000
ASUS43 KIWX 300110
RWRIWX

KIWX WEATHER ROUNDUP
NATIONAL WEATHER SERVICE NORTHERN INDIANA
800 PM EST THU JAN 29 2015

NOTE: "FAIR" INDICATES FEW OR NO CLOUDS BELOW 12,000 FEET WITH NO
SIGNIFICANT WEATHER AND/OR OBSTRUCTIONS TO VISIBILITY.

* THESE STATIONS ARE NOT UNDER NWS QUALITY CONTROL. THEY ALSO MAY NOT
  REPORT WEATHER SUCH AS PRECIPITATION OR FOG.

INZ001>027-300200-
NORTHERN INDIANA

CITY           SKY/WX    TMP DP  RH WIND       PRES   REMARKS
GARY*          CLOUDY    37  21  52 NW9G32    30.18R
VALPARAISO     CLOUDY    34  26  72 NW10      30.16R WCI  26
MICHIGAN CITY* CLOUDY    34  23  64 NW9G23    30.15R WCI  26
LAPORTE*       CLOUDY    35  29  80 NW12      30.14R WCI  26
KNOX*          CLOUDY    32  19  59 NW10      30.14R WCI  24
SOUTH BEND     CLOUDY    35  26  69 NW18      30.12R WCI  24
ELKHART*       CLOUDY    32  25  74 NW9       30.10R WCI  24
GOSHEN         CLOUDY    33  27  78 NW17G25   30.09R WCI  22
MONTICELLO*    CLOUDY    32  30  92 W9        30.16R WCI  25
LOGANSPORT*    CLOUDY    32  30  93 W9        30.16R WCI  24
ROCHESTER*     MOCLDY    34  32  93 NW10      30.13R WCI  26
WARSAW*        CLOUDY    32  30  93 NW13G23   30.09R WCI  22
ANGOLA*        CLOUDY    32  27  80 NW13      30.03R WCI  22
FORT WAYNE     LGT SNOW  33  30  88 NW10      30.08R FOG     WCI  25
HUNTINGTON*    MIX PCPN  32  28  85 NW9       30.09R WCI  24
PERU/GRISSOM   CLOUDY    32  29  89 NW12      30.13R WCI  23
MARION*        CLOUDY    32  30  95 NW14      30.12R FOG     WCI  22

$$
INZ028>050-300200-
CENTRAL INDIANA

CITY           SKY/WX    TMP DP  RH WIND       PRES   REMARKS
LAFAYETTE      CLOUDY    33  29  85 W12       30.18R WCI  24
KOKOMO*        CLOUDY    32  28  86 NW17      30.13R WCI  21
MUNCIE*        CLOUDY    32  29  88 NW15G25   30.11R FOG     WCI  22
INDIANAPOLIS   CLOUDY    30  28  92 NW12      30.17R WCI  20

$$
MIZ043>046-050>051-056>058-064>065-071>073-077>080-300200-
SOUTHWEST LOWER MICHIGAN

CITY           SKY/WX    TMP DP  RH WIND       PRES   REMARKS
BATTLE CREEK   MIX PCPN  33  25  72 NW15      30.05R WCI  23
BENTON HARBOR  CLOUDY    34  25  69 NW10G20   30.11R WCI  26
COLDWATER*     CLOUDY    32  27  81 NW13      30.04R WCI  22
HILLSDALE*     CLOUDY    32  29  91 NW13G20   30.00R WCI  22
HOLLAND        CLOUDY    34  26  72 NW8       30.09R WCI  27
GRAND RAPIDS   FLURRIES  32  25  75 NW13      30.05R WCI  22
KALAMAZOO      CLOUDY    32  25  75 NW14      30.06R WCI  22
STURGIS*       MIX PCPN  32  27  80 NW16G23   30.06R WCI  21
THREE RIVERS*  MIX PCPN  33  27  79 NW14G21   30.07R WCI  23

$$
OHZ001>008-015>018-024>025-300200-
NORTHWEST OHIO

CITY           SKY/WX    TMP DP  RH WIND       PRES   REMARKS
WAUSEON*       CLOUDY    32  30  93 NW15      30.01R WCI  22
DEFIANCE       CLOUDY    33  29  85 NW13      30.04R FOG     WCI  24
FINDLAY        LGT SNOW  33  29  85 NW16      30.00R FOG     WCI  23
TOLEDO EXPRESS CLOUDY    33  27  78 NW12      30.00R WCI  24
TOLEDO METCALF CLOUDY    33  28  81 NW13      30.00R WCI  24
LIMA           CLOUDY    34  30  85 NW18      30.02R FOG     WCI  23

$$
AND FOR LAKE MICHIGAN COASTAL AND OPEN LAKE BUOY OBSERVATIONS

STATION/POSITION TEMP    WIND        PRES    VSBY  WAVE
                 AIR SEA DIR/SP/G                  HT/PER
                 (F)     (DEG/KT/KT) (MB)    (MI)  (FT/S)
CALUMET HARBOR    35     280/ 12/ 24   N/A
MICHIGAN CITY     34     290/ 17/ 20   N/A
SAINT JOSEPH      35     320/ 17/ 22 1020.0R

$$
&&



USA.gov is the U.S. government's official web portal to all federal, state and local government web resources and services.